Regional Weather Roundup
Issued by NWS

Home | Current Version | Previous Version | Graphics & Text | Print | Product List | Glossary On
Versions: 1 2 3 4 5 6 7 8 9 10 11 12 13 14 15 16 17 18 19 20 21 22 23 24 25 26 27 28 29 30 31 32 33 34 35 36 37 38 39 40 41 42 43 44 45 46 47 48 49 50
000
ASUS43 KLOT 300604
RWRIL

ILLINOIS REGIONAL WEATHER ROUNDUP
NATIONAL WEATHER SERVICE CHICAGO/ROMEOVILLE IL
100 AM CDT FRI SEP 30 2016

NOTE: "FAIR" INDICATES FEW OR NO CLOUDS BELOW 12,000 FEET WITH NO
SIGNIFICANT WEATHER AND/OR OBSTRUCTIONS TO VISIBILITY.

* THESE STATIONS ARE NOT UNDER NWS QUALITY CONTROL. THEY ALSO MAY NOT
  REPORT WEATHER SUCH AS PRECIPITATION OR FOG.

ILZ001-002-007-009-015-016-024-300700-
NORTHWEST ILLINOIS

CITY           SKY/WX    TMP DP  RH WIND       PRES   REMARKS
MOLINE         MOCLDY    62  51  67 N8        30.22F
6HR MIN TEMP:  61; 6HR MAX TEMP:  68;

STERLING*      CLOUDY    60  54  80 N6        30.22F
$$

ILZ003-004-008-010-011-017-018-300700-
NORTH CENTRAL ILLINOIS

CITY           SKY/WX    TMP DP  RH WIND       PRES   REMARKS
ROCKFORD       CLOUDY    61  56  83 N10       30.24F
6HR MIN TEMP:  60; 6HR MAX TEMP:  65; 6HR PCP: TRACE;

ROCHELLE*      CLOUDY    60  57  89 NE10      30.21F
$$

ILZ005-006-012>014-019>023-300700-
NORTHEAST ILLINOIS

CITY           SKY/WX    TMP DP  RH WIND       PRES   REMARKS
CHICAGO-OHARE  LGT RAIN  60  58  92 NE15      30.17F
6HR MIN TEMP:  60; 6HR MAX TEMP:  63; 6HR PCP:  0.05;

CHICAGO-MIDWAY DRIZZLE   63  56  78 N14       30.15F
6HR MIN TEMP:  62; 6HR MAX TEMP:  65; 6HR PCP:  0.13;

AURORA         CLOUDY    62  58  86 NE10      30.18F
6HR MIN TEMP:  60; 6HR MAX TEMP:  63; 6HR PCP: TRACE;

LANSING*       LGT RAIN  60  60  99 NE8       30.14F
WAUKEGAN       CLOUDY    60  58  92 N7        30.20F
6HR MIN TEMP:  60; 6HR MAX TEMP:  63; 6HR PCP:  0.04;

DUPAGE AIRPORT CLOUDY    61  56  83 NE15G22   30.17F
6HR MIN TEMP:  61; 6HR MAX TEMP:  62; 6HR PCP: TRACE;

KANKAKEE*      CLOUDY    60  58  94 N7        30.14F
WHEELING       LGT RAIN  60  57  89 N10G20    30.19F
6HR MIN TEMP:  60; 6HR MAX TEMP:  63; 6HR PCP:  0.05;

NORTHERLY ISL    N/A     61  57  87 MISG        N/A
$$

LMZ740>746-300700-
SOUTHERN LAKE MICHIGAN

STATION/POSITION SKY/WX   TEMP    WIND        PRES    VSBY  WAVE
                          AIR SEA DIR/SP/G                  HT/PER
                          (F)     (DEG/KT/KT) (MB)    (MI)  (FT/S)
SOUTHERN BUOY              63 68   50/ 21/ 27 1022.4          5/ 5
WILMETTE HARBOR            61 56   70/ 16/ 21   N/A           7/ 6
HARRISON CRIB              64      40/ 22/ 24   N/A
BURNHAM HARBOR             61      30/ 15/ 18   N/A
CALUMET HARBOR             61      20/  9/ 17 1020.8F
BURNS HARBOR               61      40/ 23/ 27 1021.0F
MICHIGAN CITY              60      20/ 23/ 25   N/A
MICHIGAN CITY 6N           61 64   40/ 19/ 25   N/A           7/ 7
ST. JOSEPH                 58 58   20/ 14/ 17 1021.1F         5/ 6
$$

ILZ025>027-034>036-040-047-049-050-058-095>099-300700-
WEST-CENTRAL ILLINOIS

CITY           SKY/WX    TMP DP  RH WIND       PRES   REMARKS
QUINCY         CLOUDY    59  55  87 NW5       30.20F
GALESBURG*     CLEAR     57  53  86 N8        30.20F
MACOMB*        CLEAR     58  53  85 N9        30.22F
$$

ILZ028>032-037-038-041>044-048-051>054-059>061-300700-
CENTRAL ILLINOIS

CITY           SKY/WX    TMP DP  RH WIND       PRES   REMARKS
BLOOMINGTON    CLOUDY    58  57  97 N9        30.15F
DECATUR        MOCLDY    60  57  89 N9        30.13F
PEORIA         CLEAR     60  58  92 N6        30.17F
6HR MIN TEMP:  60; 6HR MAX TEMP:  63;

LINCOLN*       MOCLDY    58  58 100 N9        30.15F FOG
SPRINGFIELD    CLEAR     57  56  96 N8        30.15F FOG
6HR MIN TEMP:  57; 6HR MAX TEMP:  62;

TAYLORVILLE    NOT AVBL
$$

ILZ033-039-045-046-055>057-062-063-300700-
EAST-CENTRAL ILLINOIS

CITY           SKY/WX    TMP DP  RH WIND       PRES   REMARKS
CHAMPAIGN      CLOUDY    61  57  87 NE10      30.12F
MATTOON        CLOUDY    59  57  93 N8        30.10F
$$

ILZ079-100>102-300700-
SOUTHWEST ILLINOIS

CITY           SKY/WX    TMP DP  RH WIND       PRES   REMARKS
ALTON          CLOUDY    59  57  94 N6        30.15F
CAHOKIA*       CLOUDY    62  58  86 N10       30.14F
SPARTA*        CLOUDY    58  58  98 NW5       30.13F
$$

ILZ064>066-069>071-074>076-080>082-084>086-088>090-092>094-300700-
SOUTH-CENTRAL ILLINOIS

CITY           SKY/WX    TMP DP  RH WIND       PRES   REMARKS
CARBONDALE     CLOUDY    58  58 100 W5        30.10F
6HR MIN TEMP:  55; 6HR MAX TEMP:  60;

MT. VERNON     CLOUDY    55  48  76 CALM      30.10F VSB 3/4
CENTRALIA*     MOCLDY    59  59  99 N3        30.10F
SALEM*         CLEAR     58  57  94 CALM      30.10F FOG
METROPOLIS*    CLOUDY    58  57  96 CALM      30.10F
$$

ILZ067-068-072-073-078-083-087-091-300700-
SOUTHEAST ILLINOIS

CITY           SKY/WX    TMP DP  RH WIND       PRES   REMARKS
LAWRENCEVILLE  CLOUDY    58  54  86 N6        30.07F
FLORA*         CLOUDY    60  58  94 NW5       30.09F
HARRISBURG*    CLEAR     56  56 100 NW3       30.09F FOG
ROBINSON*      CLOUDY    56  54  94 N5        30.09S
$$

ABBREVIATIONS USED IN REMARKS
   TC - TEMPERATURE IN CELSIUS
  WCI - WIND CHILL INDEX
   HX - HEAT INDEX
  VSB - VISIBILITY
$$





USA.gov is the U.S. government's official web portal to all federal, state and local government web resources and services.